• In Czech Republic
  • List of Countries
  • For 7 days
  • Water Temperature
  • Satellite Maps
  • Weather Map
  • Weather Widgets
  • user-avatar
    Login

    Hourly Weather Merelbeke

    Today, 19 September, Wednesday

    Time Temperature Precipitation Wind Pressure Humidity
    00:00 +17°C° 0 mm 3 mps 761 mmHg 87%
    01:00 +16°C° 0 mm 3 mps 761 mmHg 87%
    02:00 +16°C° 0 mm 3 mps 761 mmHg 88%
    03:00 +16°C° 0 mm 3 mps 761 mmHg 88%
    04:00 +15°C° 0 mm 4 mps 761 mmHg 89%
    05:00 +15°C° 0 mm 4 mps 761 mmHg 90%
    06:00 +17°C° 0 mm 4 mps 761 mmHg 90%
    07:00 +17°C° 0 mm 5 mps 761 mmHg 83%
    08:00 +20°C° 0 mm 6 mps 761 mmHg 76%
    09:00 +21°C° 0 mm 6 mps 761 mmHg 68%
    10:00 +22°C° 0 mm 7 mps 761 mmHg 64%
    11:00 +23°C° 0 mm 7 mps 761 mmHg 60%
    12:00 +24°C° 0 mm 7 mps 761 mmHg 55%
    13:00 +24°C° 0 mm 7 mps 761 mmHg 55%
    14:00 +24°C° 0 mm 7 mps 761 mmHg 55%
    15:00 +26°C° 0 mm 7 mps 761 mmHg 55%
    16:00 +23°C° 0 mm 6 mps 761 mmHg 59%
    17:00 +22°C° 0 mm 5 mps 761 mmHg 63%
    18:00 +21°C° 0 mm 4 mps 761 mmHg 68%
    19:00 +20°C° 0 mm 4 mps 761 mmHg 71%
    20:00 +20°C° 0 mm 4 mps 762 mmHg 75%
    21:00 +19°C° 0 mm 4 mps 762 mmHg 78%
    22:00 +18°C° 0 mm 4 mps 762 mmHg 81%
    23:00 +18°C° 0 mm 4 mps 762 mmHg 84%

    Tomorrow, 20 September, Thursday

    Time Temperature Precipitation Wind Pressure Humidity
    00:00 +17°C° 0 mm 4 mps 762 mmHg 87%
    01:00 +17°C° 0 mm 4 mps 762 mmHg 89%
    02:00 +17°C° 0 mm 4 mps 762 mmHg 91%
    03:00 +15°C° 0 mm 4 mps 762 mmHg 92%
    04:00 +15°C° 0 mm 4 mps 762 mmHg 93%
    05:00 +15°C° 0 mm 4 mps 762 mmHg 93%
    06:00 +15°C° 0 mm 4 mps 761 mmHg 93%
    07:00 +17°C° 0 mm 5 mps 761 mmHg 86%
    08:00 +19°C° 0 mm 6 mps 761 mmHg 79%
    09:00 +21°C° 0 mm 6 mps 762 mmHg 72%
    10:00 +22°C° 0 mm 6 mps 761 mmHg 68%
    11:00 +23°C° 0 mm 6 mps 761 mmHg 64%
    12:00 +24°C° 0 mm 6 mps 761 mmHg 59%
    13:00 +24°C° 0 mm 6 mps 760 mmHg 58%
    14:00 +24°C° 0 mm 6 mps 760 mmHg 57%
    15:00 +24°C° 0 mm 6 mps 759 mmHg 56%
    16:00 +23°C° 0 mm 5 mps 758 mmHg 60%
    17:00 +22°C° 0 mm 5 mps 758 mmHg 64%
    18:00 +21°C° 0 mm 4 mps 757 mmHg 67%
    19:00 +21°C° 0 mm 5 mps 757 mmHg 65%
    20:00 +21°C° 0 mm 5 mps 756 mmHg 62%
    21:00 +21°C° 0 mm 6 mps 756 mmHg 59%
    22:00 +21°C° 0 mm 7 mps 755 mmHg 59%
    23:00 +21°C° 0 mm 7 mps 754 mmHg 59%

    Day after tomorrow, 21 September, Friday

    Time Temperature Precipitation Wind Pressure Humidity
    00:00 +21°C° 0 mm 7 mps 754 mmHg 58%
    01:00 +21°C° 0 mm 8 mps 753 mmHg 60%
    02:00 +19°C° 0 mm 9 mps 753 mmHg 62%
    03:00 +19°C° 0 mm 9 mps 752 mmHg 64%
    04:00 +18°C° 1.6 mm 9 mps 753 mmHg 69%
    05:00 +16°C° 1.6 mm 9 mps 753 mmHg 73%
    06:00 +15°C° 1.6 mm 9 mps 754 mmHg 78%
    07:00 +13°C° 0.2 mm 9 mps 755 mmHg 72%
    08:00 +13°C° 0.2 mm 8 mps 756 mmHg 67%
    09:00 +13°C° 0.2 mm 8 mps 757 mmHg 61%
    10:00 +15°C° 0 mm 8 mps 757 mmHg 56%
    11:00 +16°C° 0 mm 9 mps 758 mmHg 51%
    12:00 +17°C° 0 mm 9 mps 758 mmHg 47%
    13:00 +17°C° 0 mm 9 mps 759 mmHg 46%
    14:00 +17°C° 0 mm 9 mps 759 mmHg 46%
    15:00 +17°C° 0 mm 9 mps 759 mmHg 45%
    16:00 +16°C° 0 mm 9 mps 759 mmHg 49%
    17:00 +15°C° 0 mm 8 mps 760 mmHg 53%
    18:00 +14°C° 0 mm 7 mps 760 mmHg 56%
    19:00 +13°C° 0.1 mm 6 mps 761 mmHg 58%
    20:00 +13°C° 0.1 mm 6 mps 761 mmHg 60%
    21:00 +13°C° 0.1 mm 6 mps 762 mmHg 62%
    22:00 +11°C° 0.1 mm 6 mps 762 mmHg 64%
    23:00 +12°C° 0.1 mm 5 mps 762 mmHg 66%

    22 September, Saturday

    Time Temperature Precipitation Wind Pressure Humidity
    00:00 +12°C° 0.1 mm 5 mps 763 mmHg 67%
    01:00 +10°C° 0.1 mm 5 mps 763 mmHg 69%
    02:00 +10°C° 0.1 mm 5 mps 763 mmHg 71%
    03:00 +9°C° 0.1 mm 5 mps 763 mmHg 73%
    04:00 +9°C° 0.2 mm 5 mps 764 mmHg 74%
    05:00 +10°C° 0.2 mm 4 mps 764 mmHg 76%
    06:00 +10°C° 0.2 mm 4 mps 764 mmHg 78%
    07:00 +10°C° 0.1 mm 5 mps 764 mmHg 72%
    08:00 +13°C° 0.1 mm 5 mps 765 mmHg 66%
    09:00 +14°C° 0.1 mm 6 mps 765 mmHg 60%
    10:00 +15°C° 0 mm 6 mps 765 mmHg 57%
    11:00 +16°C° 0 mm 6 mps 765 mmHg 54%
    12:00 +16°C° 0 mm 6 mps 765 mmHg 50%
    13:00 +16°C° 0 mm 6 mps 765 mmHg 49%
    14:00 +16°C° 0 mm 5 mps 765 mmHg 49%
    15:00 +16°C° 0 mm 5 mps 765 mmHg 48%
    16:00 +15°C° 0 mm 4 mps 765 mmHg 52%
    17:00 +14°C° 0 mm 3 mps 765 mmHg 56%
    18:00 +14°C° 0 mm 2 mps 765 mmHg 60%
    19:00 +14°C° 0 mm 2 mps 765 mmHg 60%
    20:00 +13°C° 0 mm 2 mps 764 mmHg 61%
    21:00 +13°C° 0 mm 2 mps 764 mmHg 61%
    22:00 +13°C° 0.1 mm 2 mps 763 mmHg 65%
    23:00 +12°C° 0.1 mm 3 mps 763 mmHg 69%

    23 September, Sunday

    Time Temperature Precipitation Wind Pressure Humidity
    00:00 +12°C° 0.1 mm 3 mps 762 mmHg 72%
    01:00 +11°C° 0.8 mm 4 mps 761 mmHg 76%
    02:00 +10°C° 0.8 mm 5 mps 760 mmHg 81%
    03:00 +10°C° 0.8 mm 6 mps 758 mmHg 85%
    04:00 +10°C° 0.4 mm 7 mps 756 mmHg 83%
    05:00 +10°C° 0.4 mm 8 mps 754 mmHg 82%
    06:00 +9°C° 0.4 mm 10 mps 752 mmHg 80%
    07:00 +12°C° 0.7 mm 10 mps 750 mmHg 79%
    08:00 +13°C° 0.7 mm 11 mps 748 mmHg 78%
    09:00 +16°C° 0.7 mm 11 mps 746 mmHg 77%
    10:00 +17°C° 1.2 mm 11 mps 745 mmHg 79%
    11:00 +18°C° 1.2 mm 11 mps 743 mmHg 81%
    12:00 +19°C° 1.2 mm 12 mps 741 mmHg 82%
    13:00 +18°C° 0.3 mm 11 mps 740 mmHg 75%
    14:00 +17°C° 0.3 mm 11 mps 739 mmHg 67%
    15:00 +16°C° 0.3 mm 11 mps 738 mmHg 60%
    16:00 +15°C° 0.2 mm 12 mps 738 mmHg 63%
    17:00 +14°C° 0.2 mm 12 mps 737 mmHg 66%
    18:00 +13°C° 0.2 mm 12 mps 736 mmHg 69%
    19:00 +13°C° 0.8 mm 11 mps 737 mmHg 74%
    20:00 +13°C° 0.8 mm 10 mps 737 mmHg 79%
    21:00 +13°C° 0.8 mm 9 mps 738 mmHg 85%
    22:00 +12°C° 0.8 mm 12 mps 741 mmHg 83%
    23:00 +12°C° 0.8 mm 14 mps 743 mmHg 81%

    24 September, Monday

    Time Temperature Precipitation Wind Pressure Humidity
    00:00 +11°C° 0.8 mm 17 mps 745 mmHg 79%
    01:00 +10°C° 0.3 mm 15 mps 748 mmHg 76%
    02:00 +10°C° 0.3 mm 14 mps 751 mmHg 73%
    03:00 +10°C° 0.3 mm 13 mps 754 mmHg 70%
    04:00 +10°C° 0.3 mm 12 mps 756 mmHg 70%
    05:00 +9°C° 0.3 mm 11 mps 758 mmHg 71%
    06:00 +9°C° 0.3 mm 11 mps 759 mmHg 71%
    07:00 +11°C° 0.2 mm 11 mps 761 mmHg 68%
    08:00 +11°C° 0.2 mm 11 mps 762 mmHg 65%
    09:00 +12°C° 0.2 mm 11 mps 763 mmHg 63%
    10:00 +12°C° 0.3 mm 11 mps 764 mmHg 62%
    11:00 +12°C° 0.3 mm 11 mps 765 mmHg 61%
    12:00 +12°C° 0.3 mm 11 mps 766 mmHg 61%
    13:00 +12°C° 0.4 mm 11 mps 767 mmHg 62%
    14:00 +11°C° 0.4 mm 10 mps 767 mmHg 63%
    15:00 +11°C° 0.4 mm 10 mps 768 mmHg 65%
    16:00 +10°C° 0.2 mm 9 mps 769 mmHg 66%
    17:00 +10°C° 0.2 mm 8 mps 769 mmHg 68%
    18:00 +9°C° 0.2 mm 7 mps 770 mmHg 70%
    19:00 +9°C° 0.1 mm 6 mps 771 mmHg 71%
    20:00 +9°C° 0.1 mm 5 mps 771 mmHg 72%
    21:00 +8°C° 0.1 mm 5 mps 772 mmHg 73%
    22:00 +8°C° 0.2 mm 4 mps 772 mmHg 75%
    23:00 +10°C° 0.2 mm 4 mps 772 mmHg 76%
    Show more